Location: Boiro
(42.6475°N, 8.8834°W)
Time: 08:42:02
(UTC+01:00)

SR - Pass Details

Date: 02 December 2021
Orbit: 583 x 872 km, 66.7° (Epoch: 16 January)

Event Time Altitude Azimuth Distance (km) Brightness Sun altitude
Rises 10:52:28 0° 321° (NW) 2,830 ? 16.4°
Reaches altitude 10° 10:54:45 10° 314° (NW) 1,944 ? 16.7°
Maximum altitude 10:58:48 39° 246° (WSW) 937 ? 17.1°
Drops below altitude 10° 11:03:03 10° 177° (S) 2,046 ? 17.5°
Sets 11:05:32 0° 170° (S) 2,999 ? 17.8°
